Weather History for Montrose, CO

Change the Weather History Date:

Wednesday, March 20, 2013

  Actual Average Record
Temperature  
Mean Temperature 40 °F 42 °F  
Max Temperature 55 °F 56 °F 77 °F (2004)
Min Temperature 25 °F 29 °F 21 °F (2012)
Degree Days  
Heating Degree Days 25 23  
Month to date heating degree days 458 507  
Since 1 July heating degree days 5142 5222  
Cooling Degree Days 0 0  
Month to date cooling degree days 0 0  
Year to date cooling degree days 0 0  
Moisture  
Dew Point 18 °F    
Average Humidity 43    
Maximum Humidity 62    
Minimum Humidity 24    
Precipitation  
Precipitation 0.00 in 0.03 in 0.11 in (2003)
Month to date precipitation 0.36 0.63  
Year to date precipitation 1.17 1.86  
Sea Level Pressure  
Sea Level Pressure 30.05 in    
Wind  
Wind Speed 6 mph (SSE)    
Max Wind Speed 18 mph    
Max Gust Speed 23 mph    
Visibility 10 miles    
Events      
T = Trace of Precipitation, MM = Missing Value Source: NWS Daily Summary

Daily Weather History Graph

Daily Weather History Graph

Search for Another Location

Airport:

Trip Planner

Search our weather history database for the weather conditions in past years. The results will help you decide how hot, cold, wet, or windy it might be!

Date:

Astronomy

Mar. 20, 2013 Rise Set
Actual Time 7:14 AM MDT 7:23 PM MDT
Civil Twilight 6:48 AM MDT 7:50 PM MDT
Nautical Twilight 6:17 AM MDT 8:21 PM MDT
Astronomical Twilight 5:45 AM MDT 8:52 PM MDT
Moon 1:05 PM MDT (3/20) 2:52 AM MDT (3/20)
Length of Visible Light 13h 02m
Length of Day
12h 09m
First Quarter, 60% of the Moon is Illuminated
Mar 20
First Quarter
Mar 27
Full
Apr 2
Last Quarter
Apr 10
New
Apr 18
First Quarter

Hourly Weather History & Observations

Time (MDT) Temp. Windchill Dew Point Humidity Pressure Visibility Wind Dir Wind Speed Gust Speed Precip Events Conditions
12:53 AM 34.0 °F 25.5 °F 12.0 °F 40% 30.19 in 10.0 mi ESE 11.5 mph - N/A   Clear
1:53 AM 33.1 °F 25.5 °F 12.0 °F 42% 30.18 in 10.0 mi SE 9.2 mph - N/A   Clear
2:53 AM 28.9 °F 22.8 °F 12.9 °F 51% 30.19 in 10.0 mi SSE 5.8 mph - N/A   Clear
3:53 AM 33.1 °F 24.9 °F 12.0 °F 42% 30.15 in 10.0 mi ESE 10.4 mph - N/A   Clear
4:53 AM 28.0 °F 21.7 °F 12.0 °F 51% 30.16 in 10.0 mi ESE 5.8 mph - N/A   Clear
5:53 AM 26.1 °F 19.4 °F 12.9 °F 58% 30.17 in 10.0 mi SE 5.8 mph - N/A   Clear
6:53 AM 26.1 °F 18.4 °F 12.9 °F 58% 30.19 in 10.0 mi South 6.9 mph - N/A   Clear
7:53 AM 27.0 °F 19.5 °F 14.0 °F 58% 30.18 in 10.0 mi SSE 6.9 mph - N/A   Clear
8:53 AM 37.0 °F 33.3 °F 12.9 °F 37% 30.16 in 10.0 mi SSE 4.6 mph - N/A   Clear
9:53 AM 42.1 °F - 10.9 °F 28% 30.13 in 10.0 mi Calm Calm - N/A   Clear
10:53 AM 41.0 °F 37.1 °F 14.0 °F 33% 30.12 in 10.0 mi North 5.8 mph - N/A   Partly Cloudy
11:53 AM 43.0 °F 39.5 °F 14.0 °F 31% 30.09 in 10.0 mi WNW 5.8 mph - N/A   Scattered Clouds
12:53 PM 44.1 °F 41.5 °F 14.0 °F 30% 30.06 in 10.0 mi NW 4.6 mph - N/A   Partly Cloudy
1:53 PM 46.9 °F - 14.0 °F 27% 30.03 in 10.0 mi Calm Calm - N/A   Clear
2:53 PM 50.0 °F - 16.0 °F 26% 29.99 in 10.0 mi SSE 6.9 mph - N/A   Overcast
3:53 PM 54.0 °F - 21.9 °F 29% 29.92 in 10.0 mi SW 10.4 mph - N/A   Overcast
4:53 PM 54.0 °F - 25.0 °F 33% 29.92 in 10.0 mi SSE 8.1 mph - N/A   Overcast
5:53 PM 53.1 °F - 25.0 °F 34% 29.92 in 10.0 mi SW 8.1 mph - N/A   Overcast
6:53 PM 48.9 °F - 30.9 °F 50% 29.94 in 10.0 mi South 16.1 mph - N/A   Overcast
7:53 PM 48.0 °F - 30.9 °F 52% 29.91 in 10.0 mi SSE 12.7 mph - N/A   Overcast
8:53 PM 45.0 °F 40.1 °F 30.9 °F 58% 29.88 in 10.0 mi SSE 9.2 mph - N/A   Scattered Clouds
9:53 PM 43.0 °F 38.2 °F 30.0 °F 60% 29.85 in 10.0 mi South 8.1 mph - N/A   Mostly Cloudy
10:53 PM 43.0 °F - 30.0 °F 60% 29.85 in 10.0 mi Calm Calm - N/A   Overcast